Regional Weather Roundup
Issued by NWS Kansas City/Pleasant Hill, MO

Home | Current Version | Previous Version | Text Only | Print | Product List | Glossary On
Versions: 1 2 3 4 5 6 7 8 9 10 11 12 13 14 15 16 17 18 19 20 21 22 23 24 25 26 27 28 29 30 31 32 33 34 35 36 37 38 39 40 41 42 43 44 45 46 47 48 49 50
000
ASUS43 KEAX 030004
RWREAX

WEATHER ROUNDUP FOR EASTERN KANSAS AND NORTHWEST MISSOURI
NATIONAL WEATHER SERVICE KANSAS CITY/PLEASANT HILL MO
600 PM CST MON MAR 02 2015

KSZ040-057-103>105-MOZ028-029-037-043-030100-
...KANSAS CITY METROPOLITAN AREA...

CITY           SKY/WX    TMP DP  RH WIND       PRES   REMARKS
K.C. INTL      CLOUDY    34  20  56 SE13      30.18F WCI  25
6HR MIN TEMP:  34; 6HR MAX TEMP:  40;

K.C. DOWNTOWN  CLOUDY    36  19  50 SE9       30.20F WCI  29
6HR MIN TEMP:  36; 6HR MAX TEMP:  41;

LEES SUMMIT    CLOUDY    34  19  54 SE12G17   30.20F WCI  25
6HR MIN TEMP:  34; 6HR MAX TEMP:  37;

OLATHE - IXD   CLOUDY    33  22  63 SE9       30.18F WCI  25
6HR MIN TEMP:  33; 6HR MAX TEMP:  37; 6HR PCP: TRACE;

OLATHE - OJC   CLOUDY    33  20  58 SE8       30.18F WCI  26
6HR MIN TEMP:  33; 6HR MAX TEMP:  38;

LAWRENCE       CLOUDY    34  21  59 SE12      30.19F WCI  25

$$

MOZ001>008-011>017-020>025-030>033-038>040-044>046-053-054-030100-
...NORTHERN AND CENTRAL MISSOURI...

CITY           SKY/WX    TMP DP  RH WIND       PRES   REMARKS
ST. JOSEPH     CLOUDY    35  19  52 SE18      30.20F WCI  24
6HR MIN TEMP:  35; 6HR MAX TEMP:  42;

MOSBY          CLOUDY    34  21  60 SE7       30.22S WCI  28
WARRENSBURG    CLOUDY    34  21  60 E8        30.22F WCI  27
WHITEMAN AFB   CLOUDY    34  22  62 SE9       30.21F WCI  26
6HR MIN TEMP:  34; 6HR MAX TEMP:  36;

CLINTON        CLOUDY    37  23  56 E5        30.24F WCI  34
SEDALIA        CLOUDY    35  20  54 SE10      30.25F WCI  27
6HR MIN TEMP:  34; 6HR MAX TEMP:  36; 6HR PCP: TRACE;

WARSAW         NOT AVBL
MARSHALL       CLOUDY    37  23  56 SE9       30.28F WCI  31
CHILLICOTHE      N/A     34  19  54 SE13G18   30.22F WCI  25
6HR MIN TEMP:  34; 6HR MAX TEMP:  38;

MOBERLY        CLOUDY    32  19  59 E10       30.27F WCI  24
KIRKSVILLE     CLOUDY    32  22  66 E12       30.25F WCI  23
6HR MIN TEMP:  29; 6HR MAX TEMP:  35;


$$

MOZ041-047>049-056>058-063>065-088>090-097-030100-
...EASTERN AND SOUTHERN MISSOURI...

CITY           SKY/WX    TMP DP  RH WIND       PRES   REMARKS
ST. LOUIS INTL MOCLDY    33  18  53 E13       30.35F WCI  24
6HR MIN TEMP:  33; 6HR MAX TEMP:  35;

SPIRIT OF STL  MOCLDY    33  16  49 SE5       30.34F WCI  29
COLUMBIA       MOCLDY    34  19  54 E10       30.26F WCI  26
JEFFERSON CITY CLOUDY    35  20  54 E10       30.28F WCI  27
MEXICO         MOCLDY    32  25  74 E9        30.29F WCI  24
ROLLA          CLOUDY    34  20  56 E7        30.23F WCI  28
LEBANON        CLOUDY    36  23  60 SE8       30.23F WCI  29
OSAGE BEACH    CLOUDY    37  19  48 E6        30.24F WCI  33
SPRINGFIELD    CLOUDY    35  23  61 SE16      30.22F WCI  25
BRANSON        CLOUDY    32  25  74 SE3       30.25F
NEVADA         CLOUDY    36  23  60 NE6       30.22F WCI  31
JOPLIN         CLOUDY    35  26  69 SE9       30.21F WCI  28
WEST PLAINS    CLOUDY    36  18  48 E8        30.25F WCI  30

$$

IAZ060-094-KSZ022-034>040-054-083-096-NEZ052-066-093-030100-
...KANSAS...SOUTHEAST NEBRASKA AND IOWA...

CITY           SKY/WX    TMP DP  RH WIND       PRES   REMARKS
TOPEKA         CLOUDY    35  20  54 SE13      30.18F WCI  26
6HR MIN TEMP:  35; 6HR MAX TEMP:  40;

MANHATTAN      CLOUDY    35  20  54 SE12      30.13F WCI  27
EMPORIA        CLOUDY    32  23  69 SE12      30.13F WCI  23
CHANUTE        CLOUDY    34  26  72 SE12      30.17F WCI  25
WICHITA        CLOUDY    33  27  78 S12       30.12S WCI  24
OMAHA          CLOUDY    38  20  48 SE17      30.11F WCI  28
LINCOLN        MOCLDY    38  18  44 S14G28    30.09F WCI  30
FALLS CITY     CLOUDY    36  18  48 SE14G21   30.14F WCI  27
LAMONI         MOCLDY    32  21  64 SE6       30.19F WCI  26
DES MOINES     CLOUDY    32  17  54 E10       30.22F WCI  24

$$




USA.gov is the U.S. government's official web portal to all federal, state and local government web resources and services.